Tracking 32936 objects as of 16-Jan-2026
HD Live streaming from Space Station
objects crossing your sky now

CZ-6A DEB

Track CZ-6A DEB now!
10-day predictions


NORAD ID: 55533
Int'l Code: 2022-151YF
Perigee: 835.9 km
Apogee: 897.1 km
Inclination: 98.8 °
Period: 102.1 minutes
Semi major axis: 7237 km
RCS: Unknown
Launch date: November 11, 2022
Source: People's Republic of China (PRC)
Launch site: Taiyaun Space Center, China (TSC)

Note: This is SATELLITE DEBRIS
Your satellite tracking list
Your tracking list is empty




NASA's NSSDC Master Catalog

Two Line Element Set (TLE):
1 55533U 22151YF  26016.44321830  .00000080  00000-0  69128-4 0  9990
2 55533  98.8343  19.4433 0042281  43.1496 317.2976 14.10015372158313
Source of the keplerian elements: AFSPC